Probability
0 0 0 0 0 0 0 0 0 0 0 0 0 0 0 0 0 0 0 0 0 0 0 0 0 0 0 0 0 0 0 0 0 0 0 0 0 0
0 0 0 0 0 0 0 0 0 0 0 0 0 0 0 0 0 0 0 0 0 0 0 0 0 0 0 0 0 0 0 0 0 0 0 0 0 0
0 0 0 0 0 0 0 0 0 0 0 0 0 0 0 0 0 0 0 0 0 0 0 0 0 0 0 0 0 0 0 0 0 0 0 0 0 0
0 0 0 0 0 0 0 0 0 0 0 0 0 0 0 0 0 0 0 0 0 0 0 0 0 0 0 0 0 0 0 0 0 0 0 0 0 0
0 0 0 0 0 0 0 0 0 0 0 0 0 0 0 0 0 0 0 0 0 0 0 0 0 0 0 0 0 0 0 0 0 0 0 0 0 0
0 0 0 0 0 0 0 0 0 0 0 0 0 0 0 0 0 0 0 0 0 0 0 0 0 0 0 0 0 0 0 0 0 0 0 0 0 0
0 0 0 0 0 0 0 0 0 0 0 0 0 0 0 0 0 0 0 0 0 0 0 0 0 0 0 0 0 0 0 0 0 0 0 0 0 0
0 0 0 0 0 0 0 0 0 0 0 0 0 0 0 0 0 0 0 0 0 0 0 0 0 0 0 0 0 0 0 0 0 0 0 0 0 0
0 0 0 0 0 0 0 0 0 0 0 0 0 0 0 0 0 0 0 0 0 0 0 0 0 0 0 0 0 0 0 0 0 0 0 0 0 0
0 0 0 0 0 0 0 0 0 0 0 0 0 0 0 0 0 0 0 0 0 0 0 0 0 0 0 0 0 0 0 0 0 0 0 0 0 0
0 0 0 0 0 0 0 0 0 0 0 0 0 0 0 0 0 0 0 0 0 0 0 0 0 0 0 0 0 0 0 0 0 0 0 0 0 0
0 0 0 0 0 0 0 0 0 0 0 0 0 0 0 0 0 0 0 0 0 0 0 0 0 0 0 0 0 0 0 0 0 0 0 0 0 0
0 0 0 0 0 0 0 0 0 0 0 0 0 0 0 0 0 0 0 0 0 0 0 0 0 0 0 0 0 0 0 0 0 0 0 0 0 0
0 0 0 0 0 0 0 0 0 0 0 0 0 0 0 0 0 0 0 0 0 0 0 0 0 0 0 0 0 0 0 0 0 0 0 0 0 0
0 0 0 0 0 0 0 0 0 0 0 0 0 0 0 0 0 0 0 0 0 0 0 0 0 0 0 0 0 0 0 0 0 0 0 0 0 0
0 0 0 0 0 0 0 0 0 0 0 0 0 0 0 0 0 0 0 0 0 0 0 0 0 0 0 0 0 0 0 0 0 0 0 0 0 0
0 0 0 0 0 0 0 0 0 0 0 0 0 0 0 0 0 0 0 0 0 0 0 0 0 0 0 0 0 0 0 0 0 0 0 0 0 0
0 0 0 0 0 0 0 0 0 0 0 0 0 0 0 0 0 0 0 0 0 0 0 0 0 0 0 0 0 0 0 0 0 0 0 0 0 0
0 0 0 0 0 0 0 0 0 0 0 0 0 0 0 0 0 0 0 0 0 0 0 0 0 0 0 0 0 0 0 0 0 0 0 0 0 0
0 0 0 0 0 0 0 0 0 0 0 0 0 0 0 0 0 0 0 0 0 0 0 0 0 0 0 0 0 0 0 0 0 0 0 0 0 0
0 0 0 0 0 0 0 0 0 0 0 0 0 0 0 0 0 0 0 0 0 0 0 0 0 0 0 0 0 0 0 0 0 0 0 0 0 0
0 0 0 0 0 0 0 0 0 0 0 0 0 0 0 0 0 0 0 0 0 0 0 0 0 0 0 0 0 0 0 0 0 0 0 0 0 0
0 0 0 0 0 0 0 0 0 0 0 0 0 0 0 0 0 0 0 0 0 0 0 0 0 0 0 0 0 0 0 0 0 0 0 0 0 0
Wind_Speed
1 1 1 1 1 1 1 2 2 2 3 2 2 1 1 1 4 3 3 7 9 9 9 9 9 9 9 9 9 9 9 8 8 9 10 10 10 11
1 2 2 2 1 1 2 2 2 3 4 2 2 2 3 3 5 3 3 8 8 9 9 9 9 9 9 9 9 9 9 9 9 9 10 10 10 11
2 2 3 2 2 2 2 2 2 3 5 4 2 2 3 3 4 3 3 3 4 8 9 9 9 9 9 8 8 8 9 9 9 9 10 10 11 11
3 3 3 2 3 2 2 3 3 3 4 5 4 3 3 3 3 3 4 3 3 7 9 8 9 9 9 8 8 8 8 9 9 9 10 10 11 11
4 4 4 3 4 3 3 3 3 3 4 4 4 3 2 2 2 3 4 3 4 5 7 8 8 9 9 8 8 9 9 9 9 10 10 10 10 11
4 5 5 5 5 5 4 4 4 4 3 4 4 3 3 2 2 2 3 3 3 3 5 6 8 9 9 9 9 9 9 9 9 10 10 10 10 10
4 5 5 7 8 7 5 5 4 4 3 4 4 3 3 2 2 2 4 4 4 2 3 4 4 4 5 7 9 9 10 9 9 9 10 10 10 11
5 5 5 6 8 10 11 9 8 5 5 4 4 5 5 4 3 3 3 3 4 2 2 4 2 4 4 4 8 11 10 10 9 9 10 10 10 11
5 5 5 5 6 5 8 10 9 11 10 6 6 7 5 5 4 4 4 4 5 3 2 5 3 4 4 6 11 12 11 10 10 10 10 10 11 11
5 6 6 6 5 5 5 5 6 6 8 6 6 6 6 5 5 5 5 4 4 3 3 5 3 4 4 4 10 11 10 10 9 10 10 10 10 11
5 6 6 6 9 10 6 6 6 5 7 9 9 8 8 8 6 2 2 3 5 4 3 3 3 4 4 4 5 8 9 9 9 9 10 10 10 9
4 5 8 9 10 10 6 6 7 6 4 4 5 6 5 6 7 5 4 4 4 4 3 2 2 2 4 3 3 3 4 7 9 9 9 10 9 5
4 4 5 9 11 11 9 6 8 7 4 4 4 3 3 3 4 4 4 4 5 5 3 2 2 2 3 4 3 3 3 3 3 5 7 9 9 7
5 4 5 9 10 11 8 8 10 7 3 3 3 3 3 3 3 3 4 5 5 6 5 4 3 3 4 5 5 3 3 3 3 3 3 7 8 9
5 8 9 10 9 7 9 10 7 4 3 3 4 4 3 3 2 2 3 3 4 4 4 5 5 4 5 6 5 4 4 3 3 3 3 4 4 4
5 6 9 9 6 6 6 5 3 4 4 4 4 3 2 2 2 2 2 2 3 3 3 4 5 6 5 6 6 6 4 4 3 3 4 4 4 4
4 2 2 2 3 3 3 3 3 3 3 3 3 3 3 3 3 2 2 2 3 4 4 3 3 4 6 5 6 6 5 5 4 4 4 5 5 5
5 3 4 4 4 4 3 3 3 3 3 3 3 3 4 3 3 3 3 3 4 4 4 3 2 2 3 4 8 7 5 4 4 4 3 4 6 5
4 4 4 4 4 4 3 3 4 3 3 3 4 4 4 3 3 4 3 3 4 4 4 3 2 2 4 5 4 6 5 4 3 4 4 4 6 6
4 4 4 4 4 4 4 4 3 3 3 3 4 4 4 4 4 4 4 4 4 4 4 3 3 4 5 4 4 4 5 5 3 4 4 4 5 7
4 4 4 4 4 4 4 4 4 4 4 3 4 4 4 4 4 4 4 6 5 4 4 4 4 5 2 1 3 4 3 5 6 4 3 3 4 4
5 5 5 5 4 4 4 4 4 4 4 4 4 4 4 4 4 5 4 4 4 4 4 3 2 2 2 3 4 4 4 4 4 6 7 6 3 3
5 5 5 4 4 4 4 4 5 4 4 4 4 3 3 3 3 4 4 4 3 3 3 3 2 2 2 3 3 3 4 4 3 3 3 5 7 9
Wind_Direction
191 199 217 244 221 209 205 197 204 258 272 257 270 280 284 284 308 311 303 313 323 325 323 323 323 321 319 316 316 315 311 310 310 308 307 308 310 311
206 207 230 240 231 214 213 217 214 227 259 258 251 277 290 300 307 306 297 312 317 319 320 319 316 314 313 311 310 309 307 305 305 305 306 307 307 308
228 222 239 235 231 226 213 217 224 221 252 271 260 267 273 285 299 299 288 286 290 304 310 312 313 311 309 308 307 306 306 305 303 303 305 306 305 305
233 230 244 239 237 231 220 224 228 222 236 264 274 264 256 265 278 286 294 290 278 293 298 303 309 308 306 303 302 303 301 299 299 300 301 302 301 301
232 232 239 232 241 238 230 233 238 239 232 245 263 262 260 266 283 287 284 283 285 289 292 296 300 300 300 297 299 298 295 293 293 294 295 297 297 298
235 232 234 229 233 234 236 234 234 240 239 243 254 261 259 257 256 278 291 283 287 293 290 294 294 297 297 295 297 294 288 287 288 289 291 295 296 297
245 240 238 239 239 239 237 229 223 233 239 248 254 263 258 255 252 252 274 291 285 272 288 289 290 287 286 288 290 286 283 282 285 287 289 290 292 294
245 249 247 249 252 255 254 248 238 232 235 239 253 253 257 250 251 253 267 287 288 268 280 286 270 274 273 268 280 284 281 281 283 285 287 289 291 291
237 244 253 248 252 245 255 257 255 254 249 242 245 249 251 243 240 253 252 258 262 260 275 279 267 271 269 275 282 282 281 279 280 282 285 288 289 290
237 236 243 250 244 244 242 245 246 249 250 244 238 244 243 237 228 238 249 264 270 260 231 265 268 269 277 273 278 278 282 282 282 285 288 290 290 290
246 239 240 246 254 258 252 248 254 257 261 254 251 254 255 258 253 238 242 263 277 266 217 244 268 283 280 271 276 282 284 288 290 290 290 292 293 295
254 249 249 252 257 259 247 241 251 251 239 251 255 255 253 252 254 238 225 246 267 269 217 222 258 291 294 274 270 283 285 286 290 292 291 292 295 294
254 255 251 258 263 262 257 245 250 253 232 229 241 244 242 240 242 233 222 228 244 253 228 214 243 244 254 286 290 278 266 273 285 284 286 289 290 289
247 248 250 259 264 268 268 262 263 260 235 226 241 249 247 244 244 241 238 241 243 248 240 222 234 240 259 276 279 281 278 269 267 273 273 288 290 286
250 253 262 267 268 267 266 267 264 241 224 235 241 245 240 237 244 258 262 259 266 264 250 238 237 245 247 256 266 270 285 278 252 255 272 277 276 281
262 262 269 270 269 267 268 262 244 227 227 234 236 241 236 233 244 248 259 263 274 278 258 242 238 238 250 254 256 264 259 259 266 269 278 277 271 261
249 255 260 262 257 257 257 248 232 227 237 230 225 235 239 242 251 246 248 253 255 266 276 270 253 248 247 248 256 254 252 254 255 261 275 283 274 260
256 243 248 249 248 251 253 250 234 227 225 223 224 226 232 236 249 252 252 252 260 265 265 267 272 289 283 259 235 246 247 249 256 256 254 268 279 272
251 240 243 243 244 244 243 243 243 232 220 222 225 226 228 232 239 248 251 254 258 262 263 259 247 249 272 283 266 226 236 254 260 262 255 253 269 276
232 237 241 238 236 240 241 243 243 233 224 223 225 224 224 231 239 244 245 249 257 263 268 260 243 236 244 261 273 276 252 245 247 261 270 273 272 277
235 237 238 236 235 235 237 236 235 232 228 225 227 226 225 229 237 239 243 251 258 258 262 264 259 261 260 258 272 276 275 259 252 254 263 280 286 285
237 238 238 233 233 234 234 232 233 233 229 229 230 229 226 226 234 239 242 248 254 256 265 273 272 267 242 247 264 276 290 304 296 282 268 249 247 256
240 238 236 232 231 231 230 228 231 234 227 223 225 227 225 230 234 237 242 245 250 256 268 277 278 272 261 255 262 275 287 301 311 318 310 299 286 279